KC8QDR-1 Weather Reports


Display with metric or nautical units.
time (UTC)temp
F
wind
direction
speed
MPH
gust
MPH
rain 1hr
in
rain 24hr
in
rain mn
in
humidity
%
barometer
mb
20260510015845 53 0 0.0 1.0 0.00 0.55 0.44 90 1006.7
20260510014845 54 0 0.0 1.0 0.00 0.56 0.44 92 1006.6
20260510013845 54 0 0.0 2.0 0.00 0.56 0.44 89 1006.5
20260510012846 54 0 0.0 1.0 0.00 0.56 0.44 89 1006.5
20260510012214 54 0 0.0 0.0 0.00 0.57 0.44 90 1006.4
20260510011929 54 0 0.0 0.0 0.00 0.57 0.44 90 1006.4
20260510011845 54 0 0.0 0.0 0.00 0.57 0.44 90 1006.4
20260510010847 54 0 0.0 0.0 0.00 0.58 0.44 89 1006.1
20260510010152 55 0 0.0 1.0 0.03 0.59 0.44 88 1006.1
20260510005923 55 0 0.0 1.0 0.03 0.59 0.44 88 1006.1
20260510005845 55 0 0.0 1.0 0.03 0.59 0.44 88 1006.1
20260510004848 54 212 1.0 2.0 0.05 0.60 0.44 89 1006.2
20260510003845 54 0 0.0 2.0 0.14 0.62 0.44 88 1006.1
20260510002845 55 0 0.0 4.0 0.25 0.64 0.44 88 1006.1
20260510001848 54 0 0.0 4.0 0.25 0.66 0.44 89 1006.0
20260510000845 54 142 1.0 5.0 0.24 0.66 0.44 89 1006.2
20260509235845 54 0 0.0 9.0 0.22 0.65 0.41 89 1006.6
20260509233845 54 341 1.0 21.0 0.11 0.56 0.38 84 1006.1
20260509232845 61 329 9.0 28.0 0.00 0.46 0.19 69 1006.0
20260509231845 66 187 1.0 12.0 0.00 0.46 0.19 56 1003.4
20260509230845 66 179 4.0 14.0 0.00 0.47 0.19 55 1003.5
20260509225845 66 206 1.0 15.0 0.00 0.47 0.19 54 1003.5
20260509223845 64 92 2.0 10.0 0.00 0.50 0.25 61 1005.2
20260509222845 64 92 2.0 10.0 0.00 0.50 0.25 61 1005.2
20260509220845 64 92 2.0 10.0 0.00 0.50 0.25 61 1005.2
20260509215845 64 92 2.0 10.0 0.00 0.50 0.25 61 1005.2
20260509213845 64 92 2.0 10.0 0.00 0.50 0.25 61 1005.2
20260509212845 64 92 2.0 10.0 0.00 0.50 0.25 61 1005.2
20260509211845 64 92 2.0 10.0 0.00 0.50 0.25 61 1005.2
20260509210845 64 92 2.0 10.0 0.00 0.50 0.25 61 1005.2
20260509205845 64 92 2.0 10.0 0.00 0.50 0.25 61 1005.2
20260509204845 64 92 2.0 10.0 0.00 0.50 0.25 61 1005.2
20260509203845 64 92 2.0 10.0 0.00 0.50 0.25 61 1005.2
20260509202845 64 92 2.0 10.0 0.00 0.50 0.25 61 1005.2
20260509201845 64 92 2.0 10.0 0.00 0.50 0.25 61 1005.2
20260509200845 64 92 2.0 10.0 0.00 0.50 0.25 61 1005.2
20260509195845 64 92 2.0 10.0 0.00 0.50 0.25 61 1005.2
20260509194846 64 92 2.0 10.0 0.00 0.50 0.25 61 1005.2
20260509193845 64 92 2.0 10.0 0.00 0.50 0.25 61 1005.2
20260509192845 64 92 2.0 10.0 0.00 0.50 0.25 61 1005.2
20260509190845 64 92 2.0 10.0 0.00 0.50 0.25 61 1005.2
20260509185845 64 92 2.0 10.0 0.00 0.50 0.25 61 1005.2
20260509184845 64 92 2.0 10.0 0.00 0.50 0.25 61 1005.2
20260509183845 64 92 2.0 10.0 0.00 0.50 0.25 61 1005.2
20260509182845 64 92 2.0 10.0 0.00 0.50 0.25 61 1005.2
20260509181845 64 92 2.0 10.0 0.00 0.50 0.25 61 1005.2
20260509180848 64 92 2.0 10.0 0.00 0.50 0.25 61 1005.2
20260509180007 64 92 2.0 10.0 0.00 0.50 0.25 61 1005.2
20260509175849 64 92 2.0 10.0 0.00 0.50 0.25 61 1005.2
20260509174845 64 259 4.0 10.0 0.00 0.50 0.25 61 1005.2
20260509173845 64 200 5.0 12.0 0.00 0.50 0.25 64 1005.1
20260509172845 64 153 1.0 10.0 0.00 0.50 0.25 65 1005.2
20260509171845 63 203 1.0 14.0 0.00 0.50 0.25 66 1005.3
20260509170845 62 180 4.0 7.0 0.00 0.50 0.25 68 1005.5
20260509165845 62 173 5.0 14.0 0.00 0.50 0.25 67 1005.5
20260509164845 62 163 1.0 13.0 0.00 0.50 0.25 73 1005.7
20260509163847 62 0 0.0 12.0 0.00 0.50 0.25 73 1005.7
20260509162845 61 249 9.0 10.0 0.00 0.50 0.25 75 1005.9
20260509161845 61 196 6.0 13.0 0.00 0.50 0.25 76 1006.0
20260509160845 60 179 2.0 9.0 0.00 0.50 0.25 78 1006.0
20260509155845 60 219 2.0 11.0 0.00 0.50 0.25 76 1005.9
20260509154845 59 179 1.0 9.0 0.00 0.50 0.25 81 1005.9
20260509153845 59 0 0.0 6.0 0.00 0.50 0.25 78 1006.0
20260509152845 58 242 3.0 12.0 0.00 0.50 0.25 82 1005.9
20260509151847 58 209 1.0 5.0 0.00 0.50 0.25 83 1006.0
20260509150845 57 223 2.0 6.0 0.00 0.50 0.25 86 1006.1
20260509150056 56 222 6.0 3.0 0.00 0.50 0.25 87 1006.3
20260509145845 56 222 6.0 3.0 0.00 0.50 0.25 87 1006.3
20260509144845 55 217 3.0 4.0 0.00 0.50 0.25 88 1006.4
20260509142847 54 0 0.0 9.0 0.00 0.50 0.25 89 1006.4
20260509141846 54 0 0.0 5.0 0.00 0.50 0.25 89 1006.2
20260509140847 54 0 0.0 7.0 0.00 0.50 0.25 89 1006.2
20260509135845 53 0 0.0 4.0 0.00 0.50 0.25 90 1006.3
20260509134845 53 0 0.0 6.0 0.00 0.50 0.25 90 1006.3
20260509132845 52 0 0.0 6.0 0.00 0.53 0.25 91 1006.4
20260509131845 52 0 0.0 5.0 0.00 0.54 0.25 90 1006.4
20260509130845 52 200 2.0 3.0 0.00 0.54 0.25 91 1006.5
20260509124845 52 0 0.0 5.0 0.00 0.54 0.25 91 1006.7
20260509123847 51 158 1.0 6.0 0.00 0.54 0.25 91 1006.7
20260509122845 51 0 0.0 5.0 0.00 0.56 0.25 91 1006.6
20260509121845 51 0 0.0 2.0 0.00 0.61 0.25 91 1006.8
20260509120845 51 0 0.0 1.0 0.00 0.61 0.25 91 1006.8
20260509115845 51 158 1.0 2.0 0.00 0.61 0.25 91 1006.9
20260509114845 51 0 0.0 1.0 0.00 0.61 0.25 92 1006.9
20260509113958 50 0 0.0 3.0 0.00 0.61 0.25 92 1007.0
20260509113847 50 0 0.0 3.0 0.00 0.61 0.25 92 1007.0
20260509112845 50 0 0.0 2.0 0.00 0.61 0.25 91 1006.9
20260509111846 50 0 0.0 1.0 0.01 0.61 0.25 92 1006.8
20260509110845 50 0 0.0 1.0 0.01 0.61 0.25 92 1006.8
20260509105845 50 0 0.0 2.0 0.01 0.61 0.25 92 1006.5
20260509104845 50 0 0.0 1.0 0.01 0.61 0.25 92 1006.6
20260509103845 50 0 0.0 1.0 0.01 0.61 0.25 92 1006.7
20260509102845 50 0 0.0 4.0 0.01 0.61 0.25 92 1006.8
20260509101845 50 0 0.0 0.0 0.00 0.60 0.24 92 1006.8
20260509100845 50 0 0.0 1.0 0.00 0.60 0.24 92 1006.7
20260509095845 50 0 0.0 0.0 0.00 0.60 0.24 91 1006.7
20260509094845 50 0 0.0 1.0 0.01 0.60 0.24 92 1006.8
20260509093845 50 0 0.0 4.0 0.03 0.60 0.24 92 1006.8
20260509092845 50 0 0.0 5.0 0.03 0.60 0.24 92 1007.0
20260509091845 49 0 0.0 4.0 0.04 0.60 0.24 92 1007.1
20260509090845 49 0 0.0 3.0 0.05 0.60 0.24 92 1007.1
20260509085845 49 0 0.0 3.0 0.05 0.60 0.24 92 1007.0
20260509083845 49 0 0.0 1.0 0.04 0.57 0.22 92 1007.2
20260509082845 49 210 1.0 3.0 0.05 0.57 0.21 92 1007.2
20260509081845 49 0 0.0 7.0 0.06 0.56 0.20 92 1007.3
20260509080845 49 0 0.0 3.0 0.06 0.55 0.19 92 1007.3
20260509075846 49 0 0.0 5.0 0.08 0.55 0.19 91 1007.3
20260509074845 49 0 0.0 4.0 0.09 0.54 0.18 91 1007.2
20260509073845 49 0 0.0 3.0 0.08 0.53 0.17 91 1007.2
20260509072844 49 0 0.0 5.0 0.07 0.52 0.17 91 1007.2
20260509071845 49 0 0.0 3.0 0.06 0.50 0.15 91 1007.3
20260509070845 49 179 1.0 3.0 0.06 0.49 0.13 91 1007.4
20260509065845 49 0 0.0 4.0 0.06 0.47 0.12 91 1007.6
20260509064954 49 0 0.0 7.0 0.04 0.45 0.09 91 1007.6
20260509064848 49 0 0.0 7.0 0.04 0.45 0.09 91 1007.6
20260509064040 49 0 0.0 3.0 0.05 0.45 0.09 91 1007.7
20260509063845 49 0 0.0 3.0 0.05 0.45 0.09 91 1007.7
20260509062845 49 0 0.0 3.0 0.05 0.45 0.09 91 1007.6
20260509061845 49 0 0.0 3.0 0.04 0.44 0.08 91 1007.7
20260509060846 49 0 0.0 1.0 0.03 0.43 0.07 91 1007.9
20260509055845 49 0 0.0 3.0 0.01 0.41 0.06 91 1008.0
20260509054845 49 0 0.0 4.0 0.02 0.41 0.05 91 1008.1
20260509053845 49 0 0.0 7.0 0.01 0.40 0.04 91 1008.2
20260509052845 49 148 1.0 4.0 0.02 0.40 0.04 91 1008.3
20260509051845 49 0 0.0 3.0 0.03 0.40 0.04 91 1008.5
20260509050845 49 0 0.0 3.0 0.03 0.40 0.04 91 1008.6
20260509045845 49 0 0.0 3.0 0.04 0.40 0.04 91 1008.6
20260509044845 49 0 0.0 3.0 0.04 0.39 0.04 91 1008.7
20260509043845 49 0 0.0 0.0 0.06 0.39 0.03 91 1008.8
20260509042845 49 208 1.0 4.0 0.05 0.38 0.03 91 1008.9
20260509041845 49 0 0.0 2.0 0.04 0.37 0.01 91 1009.1
20260509040845 49 0 0.0 2.0 0.04 0.37 0.01 90 1009.2
20260509040006 49 146 1.0 4.0 0.03 0.36 0.30 90 1009.2
20260509035845 49 146 1.0 4.0 0.03 0.36 0.30 90 1009.2
20260509034845 49 0 0.0 6.0 0.02 0.35 0.28 90 1009.3
20260509033845 49 180 1.0 7.0 0.01 0.33 0.28 90 1009.6
20260509032845 49 0 0.0 2.0 0.02 0.33 0.27 90 1009.5
20260509031845 49 0 0.0 4.0 0.02 0.33 0.27 90 1009.5
20260509030846 49 138 3.0 4.0 0.02 0.33 0.27 91 1009.5
20260509025845 49 0 0.0 5.0 0.02 0.33 0.27 91 1009.7
20260509024846 49 187 1.0 4.0 0.03 0.33 0.27 91 1009.8
20260509023845 49 0 0.0 4.0 0.02 0.32 0.26 91 1009.9
20260509022845 49 0 0.0 3.0 0.01 0.31 0.26 91 1009.9
20260509021845 49 0 0.0 5.0 0.02 0.31 0.25 91 1010.1
20260509020845 49 0 0.0 2.0 0.03 0.31 0.25 91 1010.0